Location: Sungai Igah
(2.7333°N, 114.2500°E)
Time: 19:50:59
(UTC+00:00)

MOS 1 Rocket - Pass Details

Date: 14 June 2021
Orbit: 615 x 829 km, 97.4° (Epoch: 25 July)

Event Time Altitude Azimuth Distance (km) Brightness Sun altitude
Rises 21:47:54 0° 187° (S) 3,036 6.3 -7.1°
Reaches altitude 10° 21:50:24 10° 198° (SSW) 2,086 5.4 -6.5°
Maximum altitude 21:54:20 29° 258° (WSW) 1,172 4.0 -5.6°
Drops below altitude 10° 21:58:06 10° 319° (NW) 2,000 5.5 -4.7°
Sets 22:00:29 0° 330° (NNW) 2,887 6.4 -4.2°
